Regional Weather Roundup
Issued by NWS Upton, NY

Home | Current Version | Previous Version | Text Only | Print | Product List | Glossary On
Versions: 1 2 3 4 5 6 7 8 9 10 11 12 13 14 15 16 17 18 19 20 21 22 23 24 25 26 27 28 29 30 31 32 33 34 35 36 37 38 39 40 41 42 43 44 45 46 47 48 49 50
000
ASUS41 KOKX 280805
RWROKX

REGIONAL WEATHER ROUNDUP
NATIONAL WEATHER SERVICE NEW YORK NY
300 AM EST SUN DEC 28 2014

NOTE: "FAIR" INDICATES FEW OR NO CLOUDS BELOW 12,000 FEET WITH NO
SIGNIFICANT WEATHER AND/OR OBSTRUCTIONS TO VISIBILITY.

NYZ071-072-176-178-NJZ106-104-280900-
NEW YORK CITY METRO AREA


CITY           SKY/WX    TMP DP  RH WIND       PRES   REMARKS
CENTRAL PARK   MOCLDY    50  35  56 W8G18     29.98F
LAGUARDIA APRT MOCLDY    47  36  65 S7        29.96F
KENNEDY INTL   MOCLDY    44  39  82 S8        29.98F
NEWARK/LIBERTY MOCLDY    42  37  82 SW3       29.97F
BRNX BOT. GARD   N/A     46  36  66 SE3       29.97F
TETERBORO      MOCLDY    45  36  70 SW7       29.96F
$$

NYZ177-179-078>081-280900-
LONG ISLAND NEW YORK

CITY           SKY/WX    TMP DP  RH WIND       PRES   REMARKS
FARMINGDALE    PTCLDY    44  40  85 SW8       29.97F
ISLIP          MOCLDY    45  40  82 SW10      29.95F
SHIRLEY        MOCLDY    45  42  89 S8        29.98F
WESTHAMPTON    MOCLDY    46  42  86 S7        29.98F
MONTAUK POINT    N/A     49  44  83 S9G18     29.98F
$$

NYZ052-065-067-280900-
HUDSON VALLEY

CITY           SKY/WX    TMP DP  RH WIND       PRES   REMARKS
WHITE PLAINS   MOCLDY    46  36  68 CALM      29.94F
NEWBURGH       CLOUDY    45  36  70 CALM      29.93F
MONTGOMERY     CLOUDY    47  31  53 SW9       29.91F
POUGHKEEPSIE   CLOUDY    45  34  65 CALM      29.92F
ALBANY         RAIN      44  38  79 SE8       29.91R
$$

NJZ001-105-106-008-010-013-015-019>022-104-280900-
NEW JERSEY

CITY           SKY/WX    TMP DP  RH WIND       PRES   REMARKS
NEWARK/LIBERTY MOCLDY    42  37  82 SW3       29.97F
TETERBORO      MOCLDY    45  36  70 SW7       29.96F
CALDWELL       MOCLDY    44  31  60 CALM      29.96F
MORRISTOWN     MOCLDY    37  34  87 CALM      29.97F
SOMERVILLE     CLOUDY    33  30  88 CALM      29.96F
SUSSEX         CLOUDY    39  33  79 S3        29.94F
ANDOVER        NOT AVBL
TRENTON        MOCLDY    39  35  86 SW5       29.98F
MILLVILLE      MOCLDY    45  39  79 VRB7      30.00F
ATLANTIC CITY  CLEAR     43  39  86 S7        30.00F
WRIGHTSTOWN    MOCLDY    36  35  98 S2        29.97F
TOMS RIVER     PTCLDY    36  34  93 CALM      30.00F
BELMAR         PTCLDY    43  36  75 SW6       29.98F
$$

PAZ047>061-062-071-280900-
EASTERN PENNSYLVANIA

CITY           SKY/WX    TMP DP  RH WIND       PRES   REMARKS
PHILADELPHIA   MOCLDY    41  36  82 CALM      29.99F
ALLENTOWN      CLOUDY    39  33  79 E3        29.95F
SCRANTON       LGT RAIN  48  30  49 MISG      29.91F
$$

CTZ002-004>006-009-010-012-RIZ004-006-007-MAZ004-011-015-280900-
SOUTHERN NEW ENGLAND
 IN CT

CITY           SKY/WX    TMP DP  RH WIND       PRES   REMARKS
BRADLEY INTL   CLOUDY    45  33  63 S8        29.91F
HARTFORD       MOCLDY    46  34  62 S8        29.93F
DANBURY        CLOUDY    48  31  51 S8        29.94F
WTRBRY/OXFORD  MOCLDY    45  32  61 SW5       29.94F
BRIDGEPORT     MOCLDY    45  40  82 SW10      29.96F
MERIDEN        MOCLDY    43  36  76 S7        29.95F
NEW HAVEN      MOCLDY    48  40  73 S7        29.95F
CHESTER        FAIR      43  39  87 SW7       29.95F
GROTON         MOCLDY    45  42  89 SW12      29.95F
WILLIMANTIC    CLOUDY    36  32  85 NE3       29.94F

 IN RI

CITY           SKY/WX    TMP DP  RH WIND       PRES   REMARKS
PROVIDENCE     PTCLDY    42  36  79 SW8       29.95F
BLOCK ISLAND   PTCLDY    48  43  81 SW16      29.97F
WESTERLY       MOCLDY    45  42  89 S10       29.96F

 IN MA

CITY           SKY/WX    TMP DP  RH WIND       PRES   REMARKS
BOSTON         CLOUDY    45  34  65 SW16      29.91F
WORCESTER      MOCLDY    44  31  60 SW18G24   29.88F
WESTFIELD      CLOUDY    43  33  68 S3        29.91F
PROVINCETOWN   PTCLDY    45  39  81 SW14G20   29.95F
NANTUCKET      PTCLDY    47  43  86 SW13      30.00F
$$

ANZ330-335-338-340-345-350-353-355-280900-
COASTAL MARINE OBSERVATIONS


STATION/POSITION TIME  SKY/WX   TEMP    WIND        PRES    VSBY  WAVE
                                AIR SEA DIR/SP/G                  HT/PER
                 (UTC)          (F)     (DEG/KT/KT) (MB)    (MI)  (FT/S)
NY HARB ENTRANCE 0800            47 46  220/ 14/ 16 1015.6          3/14
4S FIRE IS       0800               47                N/A           4/14
20S FIRE ISLAND  0700            49 49              1017.2          4/14
23SW MTP         0800                                 N/A           4/ 5
HUDSON CANYON    0800            54 55  220/ 16/ 19 1016.4          4/14
EXECUTION ROCKS  0800            45 42  200/  8/ 12   N/A
WESTERN LI SOUND 0800            46     210/ 10/ 10   N/A           0
CENTRAL LI SOUND 0700            45 44  220/ 12/ 14   N/A           1/ 4
EASTERN LI SOUND NOT AVBL
ROBBINS REEF     0800            45                 1013.8
$$


>>>>>>>>>>>>>>>>>>>>>>>>>>>> KEY <<<<<<<<<<<<<<<<<<<<<<<<<<<
>                                                          <
>     SKY/WX - SKY CONDITION/PRESENT WEATHER               <
>     TMP    - TEMPERATURE IN FAHRENHEIT                   <
>     DP     - DEWPOINT IN FAHRENHEIT                      <
>     RH     - RELATIVE HUMIDITY IN PERCENT                <
>     WIND   - DIRECTION AND SPEED IN MPH                  <
>     PRES   - MEAN SEA LEVEL PRESSURE IN INCHES OF HG     <
>     WCI    - WIND CHILL INDEX                            <
>     VSB    - VISIBILITY IN MILES                         <
>     HX     - HEAT INDEX                                  <
>     TC     - TEMPERATURE IN CELSIUS                      <
>     VRB    - VARIABLE WIND DIRECTION                     <
>                                                          <
>>>>>>>>>>>>>>>>>>>>>>>>>>>> KEY <<<<<<<<<<<<<<<<<<<<<<<<<<<




USA.gov is the U.S. government's official web portal to all federal, state and local government web resources and services.